User: anonymous   Login
Location: Unspecified
(0.0000°N, 0.0000°E)
Time: 03:55:50
(UTC+00:00)
Language:

RADARSAT 2 - Orbit

View from above orbital plane
View from above orbital plane
View from above satellite
View from above satellite

Ground track
Ground track

The orbit data is extracted from the following two-line orbital elements,

1 32382U 07061A   18292.83832383  .00000045  00000-0  34234-4 0  9991
2 32382  98.5781 298.2963 0001103  91.3647  32.0410 14.29984895566277
Epoch (UTC): 19 October 2018 20:07:11
Eccentricity: 0.0001103
inclination: 98.5781°
perigee height: 791 km
apogee height: 792 km
right ascension of ascending node: 298.2963°
argument of perigee: 91.3647°
revolutions per day: 14.29984895
mean anomaly at epoch: 32.0410°
orbit number at epoch: 56627

The dashed part of the orbit path shows where the satellite is in the earth's shadow,  

DLR